[[{"header":{"parameterUnit":"m.s-1","parameterCategory":1,"la1":30.2991,"la2":30.254,"lo1":-89.0895,"lo2":-89.0444,"dy":0.0017,"dx":0.0017,"nx":28,"ny":28,"refTime":"2025-04-10T21:00:00:Z","depth":0,"parameterNumber":2,"parameterNumberName":"U-component_of_WINDS"},"data":[0,0,0,0,0,0,0,0,0,0,0,0,0,0,0,0,0,0,0,0,0,0,0,0,0,0,0,0,0,0,0,0,0,0,0,0,0,0,0,0,0,0,0,0,0,0,0,0,0,0,0,0,0,0,0,0,0,0,4.4896,4.4896,0,4.4946,4.4947,4.4947,4.4933,4.4932,4.4931,4.493,4.4981,4.4983,4.4985,0,0,0,0,0,0,0,0,0,0,0,0,0,4.4788,4.479,4.4896,4.4896,4.4897,4.4946,4.4947,4.4947,4.4933,4.4932,4.493,4.4929,4.498,4.4983,4.4986,0,0,0,0,0,0,0,0,0,0,0,0,0,4.4836,4.4791,4.4895,4.4896,4.4896,4.4946,4.4947,4.4947,4.4933,4.4932,4.493,4.4929,4.4979,4.4983,4.4986,4.5038,0,0,4.4997,4.4998,0,0,0,0,0,0,0,0,4.4834,4.484,4.4895,4.4896,4.4896,4.4931,4.4927,4.4978,4.4934,4.4919,4.493,4.4928,4.4966,4.497,4.4983,4.5041,4.5043,4.4997,4.4999,4.5001,4.5002,0,0,0,0,0,0,0,4.483,4.4838,4.4915,4.4896,4.4897,4.4894,4.4899,4.4937,4.495,4.492,4.4919,4.4925,4.4966,4.498,4.4984,4.5044,4.4997,4.5,4.5002,4.5003,4.5149,4.5151,0,0,0,0,0,0,4.4827,4.4835,4.4914,4.4917,4.4861,4.4897,4.4902,4.4922,4.495,4.4953,4.4927,4.4925,4.4974,4.498,4.4986,4.505,4.5001,4.5004,4.5006,4.5148,4.515,4.5152,0,0,0,0,0,0,4.4824,4.4834,4.4912,4.4876,4.4886,4.49,4.4922,4.4924,4.4937,4.4955,4.4957,4.4938,4.4973,4.4981,4.5026,4.5052,4.5005,4.5009,4.5146,4.5148,4.5151,4.5178,0,0,0,0,0,0,4.4821,4.4833,4.4852,4.4877,4.4888,4.4951,4.4924,4.4926,4.4943,4.4941,4.4966,4.4969,4.4973,4.5021,4.5029,4.5056,4.5011,4.5143,4.5147,4.515,4.5175,4.5182,4.5187,0,0,0,0,0,4.4817,4.4858,4.4853,4.4863,4.4912,4.4952,4.4959,4.4962,4.4946,4.4966,4.4977,4.4968,4.5048,4.5026,4.5035,4.5063,4.5142,4.5146,4.515,4.5172,4.518,4.5187,0,0,0,0,0,0,4.4835,4.4861,4.4856,4.4905,4.4927,4.495,4.4975,4.497,4.4996,4.4993,4.4996,4.5002,4.5049,4.506,4.5035,4.5116,4.5092,4.5098,4.5106,4.5114,4.512,4.5116,4.5014,0,0,0,0,0,4.4845,4.4875,4.4896,4.4937,4.4948,4.496,4.4977,4.4979,4.5001,4.501,4.5024,4.5046,4.5077,4.5096,4.5124,4.5177,4.5183,4.5201,4.5207,4.5212,4.5217,4.5248,4.5256,4.5165,4.5165,4.5165,0,0,4.4865,4.4883,4.4901,4.4941,4.4958,4.499,4.4968,4.5001,4.5025,4.5015,4.5058,4.507,4.5095,4.5145,4.5167,4.5156,4.5244,4.5217,4.5221,4.5223,4.5253,4.5261,4.5269,4.5168,4.5167,4.5167,0,0,4.4918,4.4934,4.4971,4.4989,4.5015,4.5023,4.5032,4.5056,4.5064,4.5108,4.5102,4.513,4.5181,4.52,4.5216,4.5279,4.5272,4.5289,4.5319,4.5349,4.5356,4.5363,4.5386,4.5394,4.5294,4.5294,4.5294,0,4.494,4.4987,4.4991,4.5026,4.5044,4.5038,4.5076,4.5093,4.5126,4.514,4.5127,4.5192,4.5208,4.5263,4.5279,4.5292,4.5303,4.5285,4.5355,4.5361,4.5367,4.5389,4.5398,4.5296,4.5295,4.5295,4.5295,0,4.5013,4.5046,4.5072,4.5106,4.5128,4.5164,4.5174,4.5196,4.5196,4.5206,4.5252,4.5271,4.5305,4.5318,4.5318,4.5373,4.5365,4.5354,4.533,4.5378,4.5399,4.5407,4.5298,4.5298,4.5297,4.5297,0,0,4.5076,4.5114,4.5123,4.5139,4.5169,4.5195,4.5232,4.5265,4.5283,4.5308,4.5339,4.5384,4.5374,4.5393,4.5395,4.5421,4.5471,4.5407,4.5407,4.5418,4.5535,4.5543,4.5553,4.5467,4.5469,4.547,4.5533,0,4.5132,4.5196,4.5202,4.5261,4.5292,4.5287,4.532,4.5342,4.5353,4.5381,4.5393,4.5425,4.5409,4.5421,4.5446,4.546,4.5495,4.5455,4.5497,4.5499,4.549,4.5564,4.5572,4.563,4.5541,4.5542,4.5543,0,4.5205,4.5232,4.5294,4.5321,4.5334,4.5363,4.5395,4.5422,4.5448,4.5454,4.5476,4.5475,4.5515,4.549,4.5545,4.5518,4.5536,4.5545,4.5548,4.5551,4.5523,4.5569,4.5648,4.5657,4.5556,4.5555,4.5554,0,4.5245,4.5298,4.5342,4.5356,4.5388,4.5409,4.5423,4.5448,4.5468,4.5496,4.5509,4.5542,4.5559,4.5585,4.5594,4.5575,4.5648,4.5624,4.5655,4.5655,4.5669,4.5668,4.5753,4.5682,4.5681,4.5681,4.5681,0,4.5307,4.5345,4.5361,4.5388,4.5431,4.5438,4.5481,4.5494,4.5517,4.5547,4.5545,4.5574,4.5584,4.5614,4.5622,4.5666,4.5674,4.5681,4.5682,4.5681,4.568,4.5692,4.5688,4.5684,4.5683,4.5683,4.5682,0,4.5359,4.5371,4.5419,4.5447,4.5455,4.5485,4.5509,4.5536,4.5547,4.5585,4.5595,4.5612,4.5649,4.566,4.5704,4.5709,4.5761,4.5759,4.5752,4.5752,4.5782,4.578,4.5877,4.589,4.5811,4.5812,4.5812,0,4.5397,4.5426,4.5457,4.5478,4.5493,4.5526,4.5547,4.5556,4.5578,4.5611,4.5634,4.567,4.5699,4.5757,4.5774,4.5808,4.5807,4.5839,4.5812,4.581,4.5808,4.5806,4.5809,4.5843,4.5844,4.5845,4.5846,0,4.5463,4.5469,4.5499,4.5532,4.5557,4.5584,4.5609,4.5626,4.5639,4.5665,4.5702,4.5725,4.577,4.5806,4.5841,4.5857,4.5854,4.5854,4.5863,4.5862,4.5857,4.586,4.5766,4.5852,4.5851,4.5851,4.585,4.585,4.551,4.5536,4.5563,4.5597,4.5618,4.5642,4.5669,4.5684,4.5716,4.5753,4.5757,4.5797,4.5825,4.5871,4.5889,4.5921,4.5912,4.5925,4.5928,4.5931,4.5934,4.5852,4.5928,4.5928,4.5927,4.5927,4.5927,0,4.5576,4.5594,4.5625,4.5662,4.5689,4.5685,4.5714,4.5737,4.5773,4.5798,4.5828,4.5871,4.5907,4.5928,4.5964,4.5986,4.5985,4.5995,4.5993,4.5997,4.5939,4.5928,4.5995,4.5995,4.5995,4.5995,4.5995,4.5995,4.5614,4.5659,4.5668,4.5724,4.5741,4.5781,4.5798,4.5821,4.5841,4.589,4.592,4.5933,4.5958,4.5996,4.6029,4.6034,4.6047,4.6058,4.6062,4.6008,4.6001,4.5994,4.5984,4.6061,4.6061,4.6117,4.6118,4.6118]},{"header":{"parameterUnit":"m.s-1","parameterCategory":1,"la1":30.2991,"la2":30.254,"lo1":-89.0895,"lo2":-89.0444,"dy":0.0017,"dx":0.0017,"nx":28,"ny":28,"refTime":"2025-04-10T21:00:00:Z","depth":0,"parameterNumber":3,"parameterNumberName":"V-component_of_WINDS"},"data":[0,0,0,0,0,0,0,0,0,0,0,0,0,0,0,0,0,0,0,0,0,0,0,0,0,0,0,0,0,0,0,0,0,0,0,0,0,0,0,0,0,0,0,0,0,0,0,0,0,0,0,0,0,0,0,0,0,0,-5.8964,-5.8964,0,-5.9038,-5.9039,-5.904,-5.9051,-5.905,-5.905,-5.9049,-5.9121,-5.9124,-5.9126,0,0,0,0,0,0,0,0,0,0,0,0,0,-5.8828,-5.8831,-5.8964,-5.8965,-5.8965,-5.9038,-5.9039,-5.904,-5.9051,-5.905,-5.9049,-5.9049,-5.9121,-5.9124,-5.9127,0,0,0,0,0,0,0,0,0,0,0,0,0,-5.8893,-5.8832,-5.8963,-5.898,-5.8982,-5.9038,-5.9039,-5.904,-5.9051,-5.905,-5.9049,-5.9048,-5.912,-5.9123,-5.9127,-5.917,0,0,-5.9139,-5.914,0,0,0,0,0,0,0,0,-5.889,-5.8898,-5.8976,-5.8979,-5.8981,-5.9034,-5.9018,-5.9084,-5.9051,-5.9025,-5.9049,-5.9048,-5.9093,-5.9099,-5.9115,-5.9174,-5.9177,-5.9139,-5.9141,-5.9143,-5.9144,0,0,0,0,0,0,0,-5.8885,-5.8895,-5.8993,-5.8978,-5.8981,-5.8983,-5.8991,-5.903,-5.9063,-5.9027,-5.9028,-5.9037,-5.9094,-5.9111,-5.9117,-5.9178,-5.9139,-5.9142,-5.9145,-5.9146,-5.9278,-5.9279,0,0,0,0,0,0,-5.8878,-5.8891,-5.8991,-5.8995,-5.8932,-5.8986,-5.8995,-5.9018,-5.9063,-5.9069,-5.9038,-5.9037,-5.9105,-5.9112,-5.9119,-5.9174,-5.9143,-5.9147,-5.9149,-5.9277,-5.9278,-5.9279,0,0,0,0,0,0,-5.8875,-5.8887,-5.8988,-5.8944,-5.8957,-5.8989,-5.9015,-5.902,-5.9037,-5.9071,-5.9077,-5.9049,-5.9105,-5.9114,-5.9158,-5.9176,-5.9148,-5.9152,-5.9275,-5.9277,-5.9279,-5.9283,0,0,0,0,0,0,-5.8871,-5.8886,-5.8903,-5.8944,-5.8959,-5.9026,-5.9016,-5.9022,-5.9044,-5.9044,-5.9084,-5.9089,-5.9105,-5.9153,-5.9162,-5.9181,-5.9155,-5.9274,-5.9276,-5.9278,-5.9281,-5.9284,-5.9287,0,0,0,0,0,-5.8866,-5.89,-5.8904,-5.8916,-5.8981,-5.9027,-5.9035,-5.9054,-5.9046,-5.9063,-5.9085,-5.9088,-5.9173,-5.9157,-5.9168,-5.9188,-5.9273,-5.9275,-5.9278,-5.928,-5.9284,-5.9287,0,0,0,0,0,0,-5.8858,-5.8905,-5.891,-5.8958,-5.8989,-5.9029,-5.9051,-5.9057,-5.909,-5.9088,-5.9108,-5.9117,-5.9161,-5.9179,-5.916,-5.9233,-5.9222,-5.9227,-5.922,-5.9224,-5.9227,-5.9221,-5.9158,0,0,0,0,0,-5.8862,-5.8897,-5.8936,-5.8974,-5.899,-5.9018,-5.9038,-5.905,-5.9082,-5.9094,-5.9119,-5.9149,-5.9183,-5.9205,-5.9237,-5.9284,-5.9293,-5.9304,-5.9307,-5.9309,-5.9313,-5.934,-5.9345,-5.9288,-5.9288,-5.9288,0,0,-5.887,-5.8901,-5.892,-5.8973,-5.8998,-5.9033,-5.9028,-5.9064,-5.909,-5.9099,-5.9143,-5.9163,-5.9198,-5.9244,-5.9265,-5.926,-5.9331,-5.9313,-5.9315,-5.9317,-5.9343,-5.9349,-5.9353,-5.929,-5.929,-5.9289,0,0,-5.8903,-5.8929,-5.8965,-5.8991,-5.9029,-5.9048,-5.9057,-5.9097,-5.9111,-5.9156,-5.9164,-5.9194,-5.9252,-5.9276,-5.9296,-5.9341,-5.9344,-5.9351,-5.9367,-5.9393,-5.9397,-5.9401,-5.9417,-5.9423,-5.9355,-5.9355,-5.9355,0,-5.8907,-5.8961,-5.8982,-5.9019,-5.9042,-5.9054,-5.909,-5.9114,-5.916,-5.9176,-5.917,-5.9244,-5.9268,-5.9321,-5.9332,-5.9348,-5.9358,-5.9346,-5.9395,-5.9399,-5.9404,-5.9419,-5.9425,-5.9355,-5.9355,-5.9355,-5.9355,0,-5.8965,-5.9001,-5.9025,-5.9072,-5.9098,-5.9134,-5.9161,-5.9184,-5.9195,-5.9214,-5.926,-5.929,-5.9329,-5.9343,-5.9352,-5.9397,-5.9393,-5.9391,-5.938,-5.9409,-5.9424,-5.943,-5.9356,-5.9356,-5.9356,-5.9356,0,0,-5.8992,-5.9052,-5.9061,-5.9083,-5.9127,-5.9156,-5.9193,-5.9233,-5.9253,-5.9285,-5.9317,-5.9366,-5.9365,-5.9388,-5.9401,-5.9424,-5.9458,-5.9419,-5.942,-5.9425,-5.9509,-5.951,-5.9516,-5.9461,-5.9462,-5.9463,-5.9506,0,-5.9029,-5.9097,-5.9118,-5.9174,-5.9208,-5.9222,-5.9254,-5.9284,-5.9304,-5.9336,-5.9357,-5.9392,-5.9388,-5.9402,-5.9426,-5.9448,-5.9475,-5.9446,-5.9489,-5.9491,-5.9479,-5.9524,-5.9524,-5.9563,-5.9512,-5.9513,-5.9514,0,-5.9081,-5.9117,-5.9177,-5.9219,-5.9234,-5.9262,-5.9302,-5.9332,-5.9367,-5.938,-5.9407,-5.9418,-5.9457,-5.9445,-5.9498,-5.9478,-5.9498,-5.9512,-5.9514,-5.9518,-5.9503,-5.9528,-5.9576,-5.9582,-5.9523,-5.9522,-5.9522,0,-5.9095,-5.9158,-5.9202,-5.9221,-5.927,-5.929,-5.9312,-5.9347,-5.937,-5.9404,-5.942,-5.9458,-5.9478,-5.9507,-5.9528,-5.9518,-5.958,-5.9569,-5.9591,-5.9591,-5.9602,-5.9601,-5.9653,-5.9616,-5.9616,-5.9616,-5.9616,0,-5.9134,-5.917,-5.9209,-5.9236,-5.9277,-5.9302,-5.9341,-5.9363,-5.9394,-5.9425,-5.9439,-5.9468,-5.9495,-5.9527,-5.9544,-5.9586,-5.9595,-5.9606,-5.961,-5.9604,-5.9603,-5.9616,-5.9614,-5.9618,-5.9617,-5.9617,-5.9617,0,-5.9156,-5.9184,-5.9233,-5.9277,-5.9289,-5.9317,-5.9355,-5.9381,-5.9403,-5.9442,-5.9453,-5.9486,-5.9524,-5.9549,-5.9598,-5.9609,-5.9655,-5.9659,-5.9644,-5.9645,-5.9666,-5.9663,-5.9728,-5.9737,-5.9694,-5.9694,-5.9695,0,-5.9179,-5.9207,-5.9255,-5.9278,-5.93,-5.9336,-5.9361,-5.9387,-5.9412,-5.9455,-5.9476,-5.9517,-5.955,-5.9612,-5.9639,-5.9677,-5.9681,-5.9701,-5.9687,-5.9681,-5.9681,-5.9679,-5.9682,-5.9703,-5.9703,-5.9704,-5.9704,0,-5.9216,-5.9229,-5.9265,-5.9306,-5.9336,-5.9369,-5.9402,-5.9419,-5.945,-5.9478,-5.9519,-5.9545,-5.9596,-5.9636,-5.9677,-5.9698,-5.9706,-5.9709,-5.9716,-5.971,-5.97,-5.9705,-5.965,-5.9707,-5.9706,-5.9706,-5.9706,-5.9706,-5.9239,-5.9265,-5.9304,-5.9343,-5.9371,-5.9403,-5.943,-5.9456,-5.9491,-5.9536,-5.9549,-5.9591,-5.9627,-5.9683,-5.9706,-5.9739,-5.9736,-5.9746,-5.9749,-5.975,-5.9751,-5.9696,-5.9746,-5.9746,-5.9746,-5.9746,-5.9746,0,-5.9277,-5.9303,-5.9339,-5.9386,-5.9418,-5.9425,-5.9462,-5.9488,-5.9526,-5.9559,-5.9593,-5.964,-5.9679,-5.9711,-5.9751,-5.9772,-5.9777,-5.9781,-5.978,-5.9784,-5.9751,-5.9741,-5.9777,-5.9777,-5.9777,-5.9777,-5.9777,-5.9777,-5.93,-5.9345,-5.9363,-5.9422,-5.9448,-5.9491,-5.9512,-5.9541,-5.9568,-5.9621,-5.9654,-5.9675,-5.9708,-5.9751,-5.9787,-5.9796,-5.9809,-5.9814,-5.9822,-5.979,-5.9787,-5.9783,-5.9774,-5.9817,-5.9817,-5.9853,-5.9854,-5.9854]}]]